FW6293 Weather Reports


time (UTC)temp
C
wind
direction
speed
KPH
gust
KPH
rain 1hr
cm
rain 24hr
cm
rain mn
cm
humidity
%
barometer
mb
20260506140016 16 298 1.6 4.8 0.10 0.15 0.15 88 1021.0
20260506134514 16 228 0.0 1.6 0.08 0.10 0.10 87 1021.0
20260506133013 16 223 0.0 3.2 0.05 0.08 0.08 87 1021.0
20260506131513 16 224 0.0 8.0 0.05 0.05 0.05 86 1021.0
20260506130011 16 294 1.6 6.4 0.05 0.05 0.05 85 1021.0
20260506124510 16 293 1.6 6.4 0.03 0.03 0.03 84 1021.0
20260506123010 16 290 3.2 9.7 0.03 0.03 0.03 83 1021.0
20260506121510 17 250 1.6 11.3 0.00 0.00 0.00 82 1021.0
20260506120011 17 297 1.6 9.7 0.00 0.00 0.00 82 1021.0
20260506114506 17 311 1.6 8.0 0.00 0.00 0.00 80 1021.0
20260506113006 17 229 1.6 8.0 0.00 0.00 0.00 79 1021.0
20260506111504 17 290 3.2 8.0 0.00 0.00 0.00 77 1021.0
20260506110003 17 219 1.6 9.7 0.00 0.00 0.00 76 1021.0
20260506104504 17 318 3.2 8.0 0.00 0.00 0.00 76 1021.0
20260506103002 17 275 3.2 12.9 0.00 0.00 0.00 75 1021.0
20260506101501 17 289 3.2 16.1 0.00 0.00 0.00 75 1021.0
20260506100120 17 267 4.8 11.3 0.00 0.00 0.00 75 1021.0
20260506094601 17 240 1.6 6.4 0.00 0.00 0.00 75 1021.0
20260506093059 17 295 4.8 11.3 0.00 0.00 0.00 74 1021.0
20260506091659 17 286 3.2 11.3 0.00 0.00 0.00 74 1021.0
20260506090058 17 288 1.6 14.5 0.00 0.00 0.00 74 1021.0
20260506084622 17 284 1.6 16.1 0.00 0.00 0.00 73 1021.0
20260506083057 17 246 1.6 4.8 0.00 0.00 0.00 73 1021.0
20260506081600 17 219 0.0 6.4 0.00 0.00 0.00 72 1021.0
20260506073053 18 250 0.0 4.8 0.00 0.00 0.00 69 1021.0
20260506071553 18 300 1.6 8.0 0.00 0.00 0.00 69 1021.0
20260506061549 17 299 0.0 0.0 0.00 0.00 0.00 69 1021.0
20260506044634 17 226 1.6 9.7 0.00 0.00 0.00 65 1021.0
20260506043039 17 315 0.0 0.0 0.00 0.00 0.00 66 1021.0
20260506041537 17 317 0.0 0.0 0.00 0.00 0.00 65 1021.0
20260506040036 17 317 0.0 0.0 0.00 0.00 0.00 66 1021.0
20260506034602 17 317 0.0 0.0 0.00 0.00 0.00 66 1021.0
20260506033138 17 317 0.0 0.0 0.00 0.00 0.00 64 1021.0
20260506031535 18 317 0.0 3.2 0.00 0.00 0.00 62 1021.0
20260506030035 18 252 0.0 3.2 0.00 0.00 0.00 61 1021.0
20260506024534 19 276 1.6 11.3 0.00 0.00 0.00 59 1021.0
20260506023045 20 235 1.6 6.4 0.00 0.00 0.00 58 1021.0
20260506021534 20 174 0.0 6.4 0.00 0.00 0.00 57 1021.0
20260506020032 20 305 0.0 4.8 0.00 0.00 0.00 55 1021.0
20260506014533 20 9 1.6 8.0 0.00 0.00 0.00 54 1021.0
20260506013038 21 159 1.6 6.4 0.00 0.00 0.00 52 1021.0
20260506011532 21 202 1.6 8.0 0.00 0.00 0.00 51 1021.0
20260506010032 22 314 1.6 12.9 0.00 0.00 0.00 50 1021.0
20260506004548 22 292 1.6 8.0 0.00 0.00 0.00 48 1021.0
20260506003041 22 291 1.6 12.9 0.00 0.00 0.00 47 1021.0
20260506001529 23 177 3.2 9.7 0.00 0.00 0.00 47 1021.0
20260506000128 23 113 1.6 6.4 0.00 0.00 0.00 47 1021.0
20260505234541 23 185 3.2 14.5 0.00 0.00 0.00 47 1021.0
20260505233027 24 223 3.2 17.7 0.00 0.00 0.00 46 1021.0
20260505231527 24 259 1.6 16.1 0.00 0.00 0.00 46 1021.0
20260505230036 25 299 1.6 9.7 0.00 0.00 0.00 45 1021.0
20260505224525 25 275 1.6 11.3 0.00 0.00 0.00 45 1021.0
20260505223025 26 307 4.8 12.9 0.00 0.00 0.00 43 1021.0
20260505221525 26 317 3.2 16.1 0.00 0.00 0.00 40 1021.0
20260505220033 26 275 12.9 20.9 0.00 0.00 0.00 37 1021.0
20260505214531 26 291 12.9 25.7 0.00 0.00 0.00 38 1021.0
20260505213025 27 283 14.5 29.0 0.00 0.00 0.00 35 1021.0
20260505211522 27 306 12.9 27.4 0.00 0.00 0.00 36 1021.0
20260505210020 27 296 11.3 32.2 0.00 0.00 0.00 35 1021.0
20260505204519 27 288 11.3 27.4 0.00 0.00 0.00 43 1021.0
20260505203019 27 292 9.7 30.6 0.00 0.00 0.00 37 1021.0
20260505201522 27 313 22.5 33.8 0.00 0.00 0.00 36 1021.0
20260505200016 27 286 17.7 41.8 0.00 0.00 0.00 36 1021.0
20260505194529 27 270 19.3 32.2 0.00 0.00 0.00 36 1021.0
20260505193031 27 292 16.1 27.4 0.00 0.00 0.00 40 1021.0
20260505191511 27 267 11.3 30.6 0.00 0.00 0.00 40 1021.0
20260505190012 27 313 6.4 33.8 0.00 0.00 0.00 39 1021.0
20260505184509 27 293 14.5 32.2 0.00 0.00 0.00 43 1021.0
20260505183012 27 265 17.7 25.7 0.00 0.00 0.00 39 1021.0
20260505181505 26 314 16.1 25.7 0.00 0.00 0.00 42 1021.0
20260505180004 26 298 9.7 33.8 0.00 0.00 0.00 40 1021.0
20260505174502 26 309 20.9 32.2 0.00 0.00 0.00 42 1021.0
20260505173001 26 309 12.9 35.4 0.00 0.00 0.00 46 1021.0
20260505171559 26 312 22.5 33.8 0.00 0.00 0.00 43 1021.0
20260505170137 26 302 20.9 32.2 0.00 0.00 0.00 43 1021.0
20260505164556 25 308 22.5 37.0 0.00 0.00 0.00 43 1021.0
20260505163055 25 294 19.3 27.4 0.00 0.00 0.00 46 1021.0
20260505161601 25 300 19.3 29.0 0.00 0.00 0.00 49 1021.0
20260505153056 25 304 19.3 33.8 0.00 0.00 0.00 49 1021.0
20260505151550 24 315 25.7 38.6 0.00 0.00 0.00 47 1021.0